> 26, 27 y 28 de Marzo / Olavarría (Buenos Aires)
Pos Auto Piloto Marca Vts. Tiempo Dif.
1 2 THIAGO MARTINEZ TOYOTA ETIOS 15 27:46.553
2 9 TOMAS SNIECHOWSKI FIESTA KINETIC 15 27:46.939 0.386
3 18 RENZO CERRETTI FIESTA KINETIC 15 27:47.178 0.625
4 3 FRANCISCO COLTRINARI TOYOTA EIOS 15 27:47.967 1,414
5 111 YAIR ETCHEVESTE RENAULT CLIO 15 27:48.235 1,682
6 14 JUAN KREITZ NISSAN MARCH 15 27:48.900 2,347
7 27 CRISTOBAL RIESTRA FIESTA KIENTIC 15 27:49.084 2,531
8 22 JUAN PABLO URRUTIA FIESTA KINETIC 15 27:49.390 2,837
9 15 MARTIN BLASIG TOYOTA ETIOS 15 27:49.858 3,305
10 116 ANDRES D'AMICO RENAULT CLIO 15 27:50.303 3,750
11 16 NICOLAS BULICH TOYOTA ETIOS 15 27:50.474 3,921
12 118 WALTER BESSONE TOYOTA ETIOS 15 27:52.107 5,554
13 33 PABLO MALIZIA TOYOTA ETIOS 15 27:53.176 6,623
14 4 LUIGI MELLI TOYOTA ETIOS 15 27:53.504 6,951
15 36 EDUARDO MORENO TOYOTA ETIOS 15 27:54.882 8,329
16 78 RAMIRO ALCAINE RENAULT CLIO 15 27:55.431 8,878
17 87 MARCELO MARCHESSE TOYOTA ETIOS 15 27:55.771 9,218
18 17 LUCAS PETRACCHINI RENAULT CLIO 15 27:56.107 9,554
19 55 JUAN CRUZ TALAMONA TOYOTA ETIOS 15 27:56.381 9,828
20 37 PABLO COLLAZO FIESTA KINETIC 15 27:56.701 10,148
21 70 MATIAS CRAVERO TOYOTA ETIOS 15 27:57.487 10,934
22 114 ESTEBAN CASAIS RENAULT CLIO 15 27:57.801 11,248
23 40 MARCELO GARCIA RENAULT CLIO 15 27:58.316 11,763
24 77 ELIAS BATTINI TOYOTA ETIOS 15 27:58.556 12,003
25 68 CRISTIAN GARBIGLIA FIESTA KINETIC 15 27:58.632 12,079
26 43 DIEGO PRESTA RENAULT CLIO 15 27:58.959 12,406
27 8 JUAN MANUEL DAMIANI TOYOTA ETIOS 15 28:01.233 14,680
28 99 LUCIANO VIANA TOYOTA ETIOS 15 28:02.082 15,529
29 95 PABLO MELILLO TOYOTA ETIOS 15 28:03.135 16,582
30 93 MARTIN BADARACO NISSAN MARCH 15 28:03.674 17,121
31 35 MARTIN FIERROS TOYOTA ETIOS 15 28:04.911 18,358
32 44 JUAN GARAVAGLIA CHEVROLET ONIX 15 28:06.489 19,936
33 39 GONZALO ALCAINE TOYOTA ETIOS 14 26:09.419 1 Vuelta
34 12 SANTIAGO ROBLEDO TOYOTA ETIOS 14 26:10.879 1 Vuelta
35 38 LUCAS BARBALARGA RENAULT CLIO 13 24:48.465 2 Vueltas
36 57 PABLO M. GRIPPO TOYOTA ETIOS 12 22:56.212 3 Vueltas
NO CLASIFICADOS
25 LUCAS ROSSOMANNO FIESTA KINETIC 9 16:21.648 6 Vueltas
6 JOAQUIN VOLPE FIESTA KINETIC 9 16:22.246 6 Vueltas
11 ALFREDO LESTARD RENAULT CLIO 9 16:37.507 6 Vueltas
20 RUBEN LOIACONO TOYOTA ETIOS 9 16:55.396 6 Vueltas
19 JUAN BENEDETTI TOYOTA ETIOS 8 15:02.896 7 Vueltas
1 PABLO VUYOVICH FIESTA KINETIC 7 13:04.250 8 Vueltas
88 JORGE POSSIEL NISSAN MARCH 5 9:45.606 10 Vueltas
113 LUIS BESSONE TOYOTA ETIOS 3 6:20.042 12 Vueltas
30 FRANCO ROSSOMANNO RENAULT CLIO

AUTO Nro. 83 EXCLUIDO MAS 3 GRILLAS PROXIMO EVENTO POR MANIOBRA PELIGROSA AL AUTO Nro. 6.

Márgen de victoria 0.386 Velocidad media 122,772 Mejor t° de vuelta 1:38.331 Mejor Vel. 138,719 Mejor vuelta para 22 – JUAN PABLO URRUTIA

Pos Auto Piloto Marca Vts. Tiempo Dif.
1 111 YAIR ETCHEVESTE RENAULT CLIO 6 10:49.029
2 25 LUCAS ROSSOMANNO FIESTA KINETIC 6 10:52.242 3,213
3 3 FRANCISCO COLTRINARI TOYOTA EIOS 6 10:55.086 6,057
4 27 CRISTOBAL RIESTRA FIESTA KIENTIC 6 10:58.872 9,843
5 38 LUCAS BARBALARGA RENAULT CLIO 6 11:01.087 12,058
6 116 ANDRES D'AMICO RENAULT CLIO 6 11:02.668 13,639
7 70 MATIAS CRAVERO TOYOTA ETIOS 6 11:05.562 16,533
8 6 JOAQUIN VOLPE FIESTA KINETIC 6 11:06.375 17,346
9 43 DIEGO PRESTA RENAULT CLIO 6 11:07.273 18,244
10 118 WALTER BESSONE TOYOTA ETIOS 6 11:08.459 19,430
11 1 PABLO VUYOVICH FIESTA KINETIC 6 11:09.004 19,975
12 39 GONZALO ALCAINE TOYOTA ETIOS 6 11:09.783 20,754
13 113 LUIS BESSONE TOYOTA ETIOS 6 11:11.179 22,150
14 36 EDUARDO MORENO TOYOTA ETIOS 6 11:11.863 22,834
15 15 MARTIN BLASIG TOYOTA ETIOS 6 11:13.865 24,836
16 8 JUAN MANUEL DAMIANI TOYOTA ETIOS 6 11:14.331 25,302
17 11 ALFREDO LESTARD RENAULT CLIO 6 11:15.618 26,589
18 30 FRANCO ROSSOMANNO RENAULT CLIO 6 11:15.989 26,960
19 57 PABLO M. GRIPPO TOYOTA ETIOS 6 11:20.112 31,083
20 20 RUBEN LOIACONO TOYOTA ETIOS 6 11:20.546 31,517
21 33 PABLO MALIZIA TOYOTA ETIOS 6 11:20.997 31,968
22 19 JUAN BENEDETTI TOYOTA ETIOS 6 11:21.447 32,418
23 95 PABLO MELILLO TOYOTA ETIOS 6 11:23.674 34,645
24 99 LUCIANO VIANA TOYOTA ETIOS 6 11:42.127 53,098
25 91 EMILIANO URQUIZA TOYOTA ETIOS 6 13:01.290 2:12.261

AUTO Nro. 30 RECARGADO CON 2 PUESTOS POR MANIOBRA PELIGROSA AL AUTO Nro. 38.

Márgen de victoria 3.213 Velocidad media 126,100 Mejor t° de vuelta 1:47.690 Mejor Vel. 126,664 Mejor vuelta para 111 – YAIR ETCHEVESTE

Pos Auto Piloto Marca Vts. Tiempo Dif.
1 9 TOMAS SNIECHOWSKI FIESTA KINETIC 6 11:48.166
2 2 THIAGO MARTINEZ TOYOTA ETIOS 6 11:48.440 0.274
3 4 LUIGI MELLI TOYOTA ETIOS 6 11:49.157 0.991
4 18 RENZO CERRETTI FIESTA KINETIC 6 11:49.431 1,265
5 83 TOMAS PUGNALONI RENAULT CLIO 6 11:50.263 2,097
6 14 JUAN KREITZ NISSAN MARCH 6 11:51.143 2,977
7 93 MARTIN BADARACO NISSAN MARCH 6 11:52.028 3,862
8 22 JUAN PABLO URRUTIA FIESTA KINETIC 6 11:52.527 4,361
9 114 ESTEBAN CASAIS RENAULT CLIO 6 11:53.219 5,053
10 17 LUCAS PETRACCHINI RENAULT CLIO 6 11:53.765 5,599
11 87 MARCELO MARCHESSE TOYOTA ETIOS 6 11:53.969 5,803
12 40 MARCELO GARCIA RENAULT CLIO 6 11:54.716 6,550
13 68 CRISTIAN GARBIGLIA FIESTA KINETIC 6 11:56.639 8,473
14 12 SANTIAGO ROBLEDO TOYOTA ETIOS 6 11:56.999 8,833
15 88 JORGE POSSIEL NISSAN MARCH 6 11:58.084 9,918
16 78 RAMIRO ALCAINE RENAULT CLIO 6 11:58.350 10,184
17 37 PABLO COLLAZO FIESTA KINETIC 6 12:00.337 12,171
18 16 NICOLAS BULICH TOYOTA ETIOS 6 12:00.877 12,711
19 77 ELIAS BATTINI TOYOTA ETIOS 6 12:01.873 13,707
20 44 JUAN GARAVAGLIA CHEVROLET ONIX 6 12:05.015 16,849
21 35 MARTIN FIERROS TOYOTA ETIOS 6 12:16.831 28,665
22 55 JUAN CRUZ TALAMONA TOYOTA ETIOS 6 12:16.840 28,674
23 31 JONATHAN BALDINELLI TOYOTA ETIOS 5 12:09.201 1 Vuelta
52 DANIEL LESTARD TOYOTA ETIOS 2 3:58.934 4 Vueltas
41 JUAN JOSE CONDE FIESTA KINETIC 2 4:05.749 4 Vueltas

AUTO Nro. 55 RECARGADO CON PUESTOS POR MANIOBRA PELIGROSA AL AUTO Nro. 35.

Márgen de victoria 0.274 Velocidad media 115,570 Mejor t° de vuelta 1:46.202 Mejor Vel. 128,438 Mejor vuelta para 18 – RENZO CERRETTI

Pos Auto Piloto Marca Tiempo Dif.
1 9 TOMAS SNIECHOWSKI FIESTA KINETIC 1:47.621
2 111 YAIR ETCHEVESTE RENAULT CLIO 1:47.934 0.313
3 4 LUIGI MELLI TOYOTA ETIOS 1:48.301 0.680
4 25 LUCAS ROSSOMANNO FIESTA KINETIC 1:48.365 0.744
5 2 THIAGO MARTINEZ TOYOTA ETIOS 1:48.386 0.765
6 30 FRANCO ROSSOMANNO RENAULT CLIO 1:48.460 0.839
7 18 RENZO CERRETTI FIESTA KINETIC 1:48.508 0.887
8 38 LUCAS BARBALARGA RENAULT CLIO 1:48.636 1,015
9 93 MARTIN BADARACO NISSAN MARCH 1:48.811 1,190
10 113 LUIS BESSONE TOYOTA ETIOS 1:48.920 1,299
11 114 ESTEBAN CASAIS RENAULT CLIO 1:48.948 1,327
12 3 FRANCISCO COLTRINARI TOYOTA EIOS 1:48.981 1,360
13 83 TOMAS PUGNALONI RENAULT CLIO 1:49.096 1,475
14 116 ANDRES D'AMICO RENAULT CLIO 1:49.111 1,490
15 14 JUAN KREITZ NISSAN MARCH 1:49.236 1,615
16 27 CRISTOBAL RIESTRA FIESTA KIENTIC 1:49.273 1,652
17 55 JUAN CRUZ TALAMONA TOYOTA ETIOS 1:49.300 1,679
18 70 MATIAS CRAVERO TOYOTA ETIOS 1:49.383 1,762
19 87 MARCELO MARCHESSE TOYOTA ETIOS 1:49.391 1,770
20 6 JOAQUIN VOLPE FIESTA KINETIC 1:49.412 1,791
21 22 JUAN PABLO URRUTIA FIESTA KINETIC 1:49.438 1,817
22 43 DIEGO PRESTA RENAULT CLIO 1:49.446 1,825
23 40 MARCELO GARCIA RENAULT CLIO 1:49.460 1,839
24 1 PABLO VUYOVICH FIESTA KINETIC 1:49.626 2,005
25 31 JONATHAN BALDINELLI TOYOTA ETIOS 1:49.648 2,027
26 11 ALFREDO LESTARD RENAULT CLIO 1:49.678 2,057
27 88 JORGE POSSIEL NISSAN MARCH 1:49.718 2,097
28 36 EDUARDO MORENO TOYOTA ETIOS 1:49.774 2,153
29 41 JUAN JOSE CONDE FIESTA KINETIC 1:49.803 2,182
30 118 WALTER BESSONE TOYOTA ETIOS 1:49.859 2,238
31 17 LUCAS PETRACCHINI RENAULT CLIO 1:49.915 2,294
32 19 JUAN BENEDETTI TOYOTA ETIOS 1:49.991 2,370
33 16 NICOLAS BULICH TOYOTA ETIOS 1:50.340 2,719
34 39 GONZALO ALCAINE TOYOTA ETIOS 1:50.388 2,767
35 12 SANTIAGO ROBLEDO TOYOTA ETIOS 1:50.506 2,885
36 99 LUCIANO VIANA TOYOTA ETIOS 1:50.541 2,920
37 37 PABLO COLLAZO FIESTA KINETIC 1:51.012 3,391
38 95 PABLO MELILLO TOYOTA ETIOS 1:51.285 3,664
39 77 ELIAS BATTINI TOYOTA ETIOS 1:51.286 3,665
40 15 MARTIN BLASIG TOYOTA ETIOS 1:51.315 3,694
41 68 CRISTIAN GARBIGLIA FIESTA KINETIC 1:51.474 3,853
42 20 RUBEN LOIACONO TOYOTA ETIOS 1:51.491 3,870
43 52 DANIEL LESTARD TOYOTA ETIOS 1:51.635 4,014
44 33 PABLO MALIZIA TOYOTA ETIOS 1:51.764 4,143
45 78 RAMIRO ALCAINE RENAULT CLIO 1:51.880 4,259
46 57 PABLO M. GRIPPO TOYOTA ETIOS 1:51.911 4,290
47 35 MARTIN FIERROS TOYOTA ETIOS 1:52.509 4,888
48 91 EMILIANO URQUIZA TOYOTA ETIOS 1:54.712 7,091
49 44 JUAN GARAVAGLIA CHEVROLET ONIX 1:57.597 9,976

AUTO Nro. 8 APERCIBIDO POR MANIOBRA PELIGROSA AL AUTO Nro. 1
SIN TIEMPO AUTO Nro. 8.

Pos Auto Piloto Marca Tiempo Dif.
1 93 MARTIN BADARACO NISSAN MARCH 1:47.964
2 114 ESTEBAN CASAIS RENAULT CLIO 1:48.057 0.093
3 111 YAIR ETCHEVESTE RENAULT CLIO 1:48.116 0.152
4 18 RENZO CERRETTI FIESTA KINETIC 1:48.260 0.296
5 30 FRANCO ROSSOMANNO RENAULT CLIO 1:48.439 0.475
6 31 JONATHAN BALDINELLI TOYOTA ETIOS 1:48.567 0.603
7 25 LUCAS ROSSOMANNO FIESTA KINETIC 1:48.791 0.827
8 4 LUIGI MELLI TOYOTA ETIOS 1:49.465 1,501
9 9 TOMAS SNIECHOWSKI FIESTA KINETIC 1:49.485 1,521
10 3 FRANCISCO COLTRINARI TOYOTA EIOS 1:49.682 1,718
11 14 JUAN KREITZ NISSAN MARCH 1:49.827 1,863
12 38 LUCAS BARBALARGA RENAULT CLIO 1:49.949 1,985
13 88 JORGE POSSIEL NISSAN MARCH 1:49.963 1,999
14 113 LUIS BESSONE TOYOTA ETIOS 1:50.252 2,288
15 12 SANTIAGO ROBLEDO TOYOTA ETIOS 1:50.329 2,365
16 11 ALFREDO LESTARD RENAULT CLIO 1:50.346 2,382
17 27 CRISTOBAL RIESTRA FIESTA KIENTIC 1:50.392 2,428
18 2 THIAGO MARTINEZ TOYOTA ETIOS 1:50.441 2,477
19 57 PABLO M. GRIPPO TOYOTA ETIOS 1:50.479 2,515
20 17 LUCAS PETRACCHINI RENAULT CLIO 1:50.553 2,589
21 1 PABLO VUYOVICH FIESTA KINETIC 1:50.683 2,719
22 41 JUAN JOSE CONDE FIESTA KINETIC 1:50.890 2,926
23 87 MARCELO MARCHESSE TOYOTA ETIOS 1:50.993 3,029
24 77 ELIAS BATTINI TOYOTA ETIOS 1:51.264 3,300
25 68 CRISTIAN GARBIGLIA FIESTA KINETIC 1:51.364 3,400
26 19 JUAN BENEDETTI TOYOTA ETIOS 1:51.364 3,400
27 8 JUAN MANUEL DAMIANI TOYOTA ETIOS 1:51.740 3,776
28 15 MARTIN BLASIG TOYOTA ETIOS 1:52.191 4,227
29 22 JUAN PABLO URRUTIA FIESTA KINETIC 1:52.338 4,374
30 39 GONZALO ALCAINE TOYOTA ETIOS 1:52.371 4,407
31 37 PABLO COLLAZO FIESTA KINETIC 1:52.513 4,549
32 55 JUAN CRUZ TALAMONA TOYOTA ETIOS 1:52.907 4,943
33 40 MARCELO GARCIA RENAULT CLIO 1:52.978 5,014
34 16 NICOLAS BULICH TOYOTA ETIOS 1:53.207 5,243
35 78 RAMIRO ALCAINE RENAULT CLIO 1:54.310 6,346
36 95 PABLO MELILLO TOYOTA ETIOS 1:54.394 6,430
37 116 ANDRES D'AMICO RENAULT CLIO 1:54.931 6,967
38 83 TOMAS PUGNALONI RENAULT CLIO 1:55.040 7,076
39 99 LUCIANO VIANA TOYOTA ETIOS 1:55.516 7,552
40 20 RUBEN LOIACONO TOYOTA ETIOS 1:55.594 7,630
41 52 DANIEL LESTARD TOYOTA ETIOS 1:55.670 7,706
42 33 PABLO MALIZIA TOYOTA ETIOS 1:55.730 7,766
43 35 MARTIN FIERROS TOYOTA ETIOS 1:57.002 9,038
44 91 EMILIANO URQUIZA TOYOTA ETIOS 2:01.016 13,052
45 70 MATIAS CRAVERO TOYOTA ETIOS 2:11.255 23,291
46 44 JUAN GARAVAGLIA CHEVROLET ONIX 2:13.904 25,940

SIN TIEMPO AUTOS Nro. 6, 36, 43 Y 118.

Pos Auto Piloto Marca Tiempo Dif.
1 8 JUAN MANUEL DAMIANI TOYOTA ETIOS 1:36.360
2 17 LUCAS PETRACCHINI RENAULT CLIO 1:36.436 0.076
3 116 ANDRES D'AMICO RENAULT CLIO 1:36.482 0.122
4 3 FRANCISCO COLTRINARI TOYOTA EIOS 1:36.540 0.180
5 30 FRANCO ROSSOMANNO RENAULT CLIO 1:36.710 0.350
6 11 ALFREDO LESTARD RENAULT CLIO 1:36.821 0.461
7 83 TOMAS PUGNALONI RENAULT CLIO 1:36.888 0.528
8 2 THIAGO MARTINEZ TOYOTA ETIOS 1:36.935 0.575
9 1 PABLO VUYOVICH FIESTA KINETIC 1:36.942 0.582
10 9 TOMAS SNIECHOWSKI FIESTA KINETIC 1:37.112 0.752
11 18 RENZO CERRETTI FIESTA KINETIC 1:37.220 0.860
12 15 MARTIN BLASIG TOYOTA ETIOS 1:37.224 0.864
13 6 JOAQUIN VOLPE FIESTA KINETIC 1:37.312 0.952
14 70 MATIAS CRAVERO TOYOTA ETIOS 1:37.336 0.976
15 12 SANTIAGO ROBLEDO TOYOTA ETIOS 1:37.351 0.991
16 78 RAMIRO ALCAINE RENAULT CLIO 1:37.414 1,054
17 37 PABLO COLLAZO FIESTA KINETIC 1:37.425 1,065
18 113 LUIS BESSONE TOYOTA ETIOS 1:37.449 1,089
19 22 JUAN PABLO URRUTIA FIESTA KINETIC 1:37.492 1,132
20 31 JONATHAN BALDINELLI TOYOTA ETIOS 1:37.517 1,157
21 88 JORGE POSSIEL NISSAN MARCH 1:37.633 1,273
22 16 NICOLAS BULICH TOYOTA ETIOS 1:37.688 1,328
23 41 JUAN JOSE CONDE FIESTA KINETIC 1:37.691 1,331
24 55 JUAN CRUZ TALAMONA TOYOTA ETIOS 1:37.703 1,343
25 33 PABLO MALIZIA TOYOTA ETIOS 1:37.717 1,357
26 19 JUAN BENEDETTI TOYOTA ETIOS 1:37.755 1,395
27 4 LUIGI MELLI TOYOTA ETIOS 1:37.789 1,429
28 27 CRISTOBAL RIESTRA FIESTA KIENTIC 1:37.879 1,519
29 87 MARCELO MARCHESSE TOYOTA ETIOS 1:37.972 1,612
30 14 JUAN KREITZ NISSAN MARCH 1:38.053 1,693
31 36 EDUARDO MORENO TOYOTA ETIOS 1:38.126 1,766
32 91 EMILIANO URQUIZA TOYOTA ETIOS 1:38.212 1,852
33 25 LUCAS ROSSOMANNO FIESTA KINETIC 1:38.396 2,036
34 93 MARTIN BADARACO NISSAN MARCH 1:38.420 2,060
35 40 MARCELO GARCIA RENAULT CLIO 1:38.483 2,123
36 35 MARTIN FIERROS TOYOTA ETIOS 1:38.583 2,223
37 77 ELIAS BATTINI TOYOTA ETIOS 1:38.615 2,255
38 114 ESTEBAN CASAIS RENAULT CLIO 1:38.689 2,329
39 118 WALTER BESSONE TOYOTA ETIOS 1:38.715 2,355
40 95 PABLO MELILLO TOYOTA ETIOS 1:38.843 2,483
41 38 LUCAS BARBALARGA RENAULT CLIO 1:38.962 2,602
42 20 RUBEN LOIACONO TOYOTA ETIOS 1:38.974 2,614
43 52 DANIEL LESTARD TOYOTA ETIOS 1:39.328 2,968
44 57 PABLO M. GRIPPO TOYOTA ETIOS 1:39.382 3,022
45 99 LUCIANO VIANA TOYOTA ETIOS 1:39.413 3,053
46 43 DIEGO PRESTA RENAULT CLIO 1:39.431 3,071
47 68 CRISTIAN GARBIGLIA FIESTA KINETIC 1:39.454 3,094
48 111 YAIR ETCHEVESTE RENAULT CLIO 1:39.553 3,193
49 44 JUAN GARAVAGLIA CHEVROLET ONIX 1:40.031 3,671
50 39 GONZALO ALCAINE TOYOTA ETIOS 1:41.951 5,591
Pos Auto Piloto Marca Tiempo Dif.
1 8 JUAN MANUEL DAMIANI TOYOTA ETIOS 1:36.360
2 17 LUCAS PETRACCHINI RENAULT CLIO 1:36.436 0.076
3 116 ANDRES D'AMICO RENAULT CLIO 1:36.482 0.122
4 3 FRANCISCO COLTRINARI TOYOTA EIOS 1:36.540 0.180
5 30 FRANCO ROSSOMANNO RENAULT CLIO 1:36.710 0.350
6 11 ALFREDO LESTARD RENAULT CLIO 1:36.821 0.461
7 83 TOMAS PUGNALONI RENAULT CLIO 1:36.888 0.528
8 2 THIAGO MARTINEZ TOYOTA ETIOS 1:36.935 0.575
9 1 PABLO VUYOVICH FIESTA KINETIC 1:36.942 0.582
10 9 TOMAS SNIECHOWSKI FIESTA KINETIC 1:37.112 0.752
11 18 RENZO CERRETTI FIESTA KINETIC 1:37.220 0.860
12 15 MARTIN BLASIG TOYOTA ETIOS 1:37.224 0.864
13 6 JOAQUIN VOLPE FIESTA KINETIC 1:37.312 0.952
14 70 MATIAS CRAVERO TOYOTA ETIOS 1:37.336 0.976
15 12 SANTIAGO ROBLEDO TOYOTA ETIOS 1:37.351 0.991
16 78 RAMIRO ALCAINE RENAULT CLIO 1:37.414 1,054
17 37 PABLO COLLAZO FIESTA KINETIC 1:37.425 1,065
18 113 LUIS BESSONE TOYOTA ETIOS 1:37.449 1,089
19 22 JUAN PABLO URRUTIA FIESTA KINETIC 1:37.492 1,132
20 31 JONATHAN BALDINELLI TOYOTA ETIOS 1:37.517 1,157
21 88 JORGE POSSIEL NISSAN MARCH 1:37.633 1,273
22 16 NICOLAS BULICH TOYOTA ETIOS 1:37.688 1,328
23 41 JUAN JOSE CONDE FIESTA KINETIC 1:37.691 1,331
24 55 JUAN CRUZ TALAMONA TOYOTA ETIOS 1:37.703 1,343
25 33 PABLO MALIZIA TOYOTA ETIOS 1:37.717 1,357
26 19 JUAN BENEDETTI TOYOTA ETIOS 1:37.755 1,395
27 4 LUIGI MELLI TOYOTA ETIOS 1:37.789 1,429
28 27 CRISTOBAL RIESTRA FIESTA KIENTIC 1:37.879 1,519
29 87 MARCELO MARCHESSE TOYOTA ETIOS 1:38.017 1,657
30 14 JUAN KREITZ NISSAN MARCH 1:38.053 1,693
31 36 EDUARDO MORENO TOYOTA ETIOS 1:38.126 1,766
32 91 EMILIANO URQUIZA TOYOTA ETIOS 1:38.212 1,852
33 25 LUCAS ROSSOMANNO FIESTA KINETIC 1:38.396 2,036
34 93 MARTIN BADARACO NISSAN MARCH 1:38.420 2,060
35 40 MARCELO GARCIA RENAULT CLIO 1:38.483 2,123
36 35 MARTIN FIERROS TOYOTA ETIOS 1:38.583 2,223
37 114 ESTEBAN CASAIS RENAULT CLIO 1:38.689 2,329
38 77 ELIAS BATTINI TOYOTA ETIOS 1:38.714 2,354
39 118 WALTER BESSONE TOYOTA ETIOS 1:38.715 2,355
40 95 PABLO MELILLO TOYOTA ETIOS 1:38.843 2,483
41 38 LUCAS BARBALARGA RENAULT CLIO 1:38.962 2,602
42 20 RUBEN LOIACONO TOYOTA ETIOS 1:38.974 2,614
43 52 DANIEL LESTARD TOYOTA ETIOS 1:39.328 2,968
44 57 PABLO M. GRIPPO TOYOTA ETIOS 1:39.382 3,022
45 99 LUCIANO VIANA TOYOTA ETIOS 1:39.413 3,053
46 43 DIEGO PRESTA RENAULT CLIO 1:39.431 3,071
47 68 CRISTIAN GARBIGLIA FIESTA KINETIC 1:39.454 3,094
48 111 YAIR ETCHEVESTE RENAULT CLIO 1:39.553 3,193
49 44 JUAN GARAVAGLIA CHEVROLET ONIX 1:40.031 3,671
50 39 GONZALO ALCAINE TOYOTA ETIOS 1:41.951 5,591
Pos Auto Piloto Marca Tiempo Dif.
1 30 FRANCO ROSSOMANNO RENAULT CLIO 1:37.659
2 8 JUAN MANUEL DAMIANI TOYOTA ETIOS 1:37.668 0.009
3 9 TOMAS SNIECHOWSKI FIESTA KINETIC 1:37.672 0.013
4 17 LUCAS PETRACCHINI RENAULT CLIO 1:37.819 0.160
5 18 RENZO CERRETTI FIESTA KINETIC 1:37.821 0.162
6 87 MARCELO MARCHESSE TOYOTA ETIOS 1:37.972 0.313
7 1 PABLO VUYOVICH FIESTA KINETIC 1:38.020 0.361
8 16 NICOLAS BULICH TOYOTA ETIOS 1:38.043 0.384
9 12 SANTIAGO ROBLEDO TOYOTA ETIOS 1:38.156 0.497
10 3 FRANCISCO COLTRINARI TOYOTA EIOS 1:38.253 0.594
11 19 JUAN BENEDETTI TOYOTA ETIOS 1:38.253 0.594
12 22 JUAN PABLO URRUTIA FIESTA KINETIC 1:38.262 0.603
13 4 LUIGI MELLI TOYOTA ETIOS 1:38.317 0.658
14 116 ANDRES D'AMICO RENAULT CLIO 1:38.397 0.738
15 11 ALFREDO LESTARD RENAULT CLIO 1:38.468 0.809
16 77 ELIAS BATTINI TOYOTA ETIOS 1:38.615 0.956
17 27 CRISTOBAL RIESTRA FIESTA KIENTIC 1:38.695 1,036
18 88 JORGE POSSIEL NISSAN MARCH 1:38.751 1,092
19 31 JONATHAN BALDINELLI TOYOTA ETIOS 1:38.786 1,127
20 93 MARTIN BADARACO NISSAN MARCH 1:38.791 1,132
21 25 LUCAS ROSSOMANNO FIESTA KINETIC 1:39.139 1,480
22 68 CRISTIAN GARBIGLIA FIESTA KINETIC 1:39.634 1,975
23 15 MARTIN BLASIG TOYOTA ETIOS 1:39.708 2,049
24 35 MARTIN FIERROS TOYOTA ETIOS 1:40.286 2,627
25 20 RUBEN LOIACONO TOYOTA ETIOS 1:40.566 2,907
26 41 JUAN JOSE CONDE FIESTA KINETIC 1:45.901 8,242
27 55 JUAN CRUZ TALAMONA TOYOTA ETIOS 1:46.709 9,050
28 70 MATIAS CRAVERO TOYOTA ETIOS 1:47.034 9,375
29 37 PABLO COLLAZO FIESTA KINETIC 1:47.088 9,429
30 43 DIEGO PRESTA RENAULT CLIO 1:47.132 9,473
31 114 ESTEBAN CASAIS RENAULT CLIO 1:47.175 9,516
32 52 DANIEL LESTARD TOYOTA ETIOS 1:47.457 9,798
33 95 PABLO MELILLO TOYOTA ETIOS 1:47.790 10,131
34 33 PABLO MALIZIA TOYOTA ETIOS 1:47.948 10,289
35 6 JOAQUIN VOLPE FIESTA KINETIC 1:48.017 10,358
36 36 EDUARDO MORENO TOYOTA ETIOS 1:48.149 10,490
37 2 THIAGO MARTINEZ TOYOTA ETIOS 1:48.392 10,733
38 14 JUAN KREITZ NISSAN MARCH 1:48.747 11,088
39 118 WALTER BESSONE TOYOTA ETIOS 1:49.182 11,523
40 91 EMILIANO URQUIZA TOYOTA ETIOS 1:49.562 11,903
41 40 MARCELO GARCIA RENAULT CLIO 1:49.685 12,026
42 78 RAMIRO ALCAINE RENAULT CLIO 1:49.733 12,074
43 39 GONZALO ALCAINE TOYOTA ETIOS 1:50.624 12,965
44 57 PABLO M. GRIPPO TOYOTA ETIOS 1:50.628 12,969
45 83 TOMAS PUGNALONI RENAULT CLIO 1:50.704 13,045
46 44 JUAN GARAVAGLIA CHEVROLET ONIX 1:51.403 13,744
47 38 LUCAS BARBALARGA RENAULT CLIO 1:52.941 15,282
48 111 YAIR ETCHEVESTE RENAULT CLIO 1:53.407 15,748
49 99 LUCIANO VIANA TOYOTA ETIOS 1:53.962 16,303

SIN TIEMPO AUTO Nro. 113.